This is the latest recevied weather packets stored in our database for station/object IW9CSJ-13. If no packets are shown the sender has not sent any weather packets the latest 10 day(s).
| Time | Temp. | Humidity | Pressure | Rain* | Wind** | Luminosity | Snow |
|---|---|---|---|---|---|---|---|
| 1777337121 | 17.22° C | 54% | 1015 hPa | 0 mm | - | - | - |
| 1777336524 | 17.22° C | 54% | 1015 hPa | 0 mm | - | - | - |
| 1777335322 | 17.22° C | 54% | 1015 hPa | 0 mm | - | - | - |
| 1777332922 | 17.22° C | 52% | 1015.3 hPa | 0 mm | - | - | - |
| 1777329318 | 16.67° C | 54% | 1015.8 hPa | 0 mm | - | - | - |
| 1777323017 | 17.22° C | 49% | 1016 hPa | 0 mm | - | - | - |
| 1777322738 | 17.22° C | 49% | 1016 hPa | 0 mm | - | - | - |
| 1777322417 | 17.78° C | 48% | 1016 hPa | 0 mm | - | - | - |
| 1777322140 | 17.78° C | 48% | 1016.1 hPa | 0 mm | - | - | - |
| 1777321222 | 17.22° C | 49% | 1016.2 hPa | 0 mm | - | - | - |
| 1777320919 | 17.22° C | 50% | 1016.1 hPa | 0 mm | - | - | - |
| 1777319417 | 17.78° C | 49% | 1016.3 hPa | 0 mm | - | - | - |
| 1777318829 | 17.78° C | 49% | 1016.2 hPa | 0 mm | - | - | - |
| 1777317623 | 17.78° C | 49% | 1016.1 hPa | 0 mm | - | - | - |
| 1777316426 | 17.78° C | 46% | 1016 hPa | 0 mm | - | - | - |
| 1777312816 | 18.33° C | 49% | 1015.7 hPa | 0 mm | - | - | - |
| 1777311919 | 17.78° C | 51% | 1015.6 hPa | 0 mm | - | - | - |
| 1777309524 | 18.33° C | 56% | 1015.5 hPa | 0 mm | - | - | - |
| 1777308624 | 18.33° C | 52% | 1015.5 hPa | 0 mm | - | - | - |
| 1777308324 | 18.33° C | 49% | 1015.6 hPa | 0 mm | - | - | - |
| 1777308020 | 18.89° C | 49% | 1015.7 hPa | 0 mm | - | - | - |
| 1777306223 | 18.89° C | 48% | 1015.6 hPa | 0 mm | - | - | - |
| 1777305924 | 19.44° C | 46% | 1015.7 hPa | 0 mm | - | - | - |
| 1777302041 | 19.44° C | 47% | 1015.5 hPa | 0 mm | - | - | - |
| 1777300521 | 20° C | 48% | 1015.7 hPa | 0 mm | - | - | - |
* Rain latest hour (hover to see other rain measurements)
** Current wind speed in m/s (hover to see current wind gust speed)